Location: Maynard F. Jordan Observatory
(44.9000°N, 68.6700°W)
Time: 20:23:16
(UTC-04:00)

Cosmos 2297 Rocket - Visible Passes

Search period start: 20 August 2014 00:00
Search period end: 30 August 2014 00:00
Orbit: 841 x 842 km, 71.0° (Epoch: 20 August)

Date Brightness Start Highest point End Pass type
(mag) Time Alt. Az. Time Alt. Az. Time Alt. Az.
20 Aug 3.5 03:27:53 10° NNW 03:33:15 42° ENE 03:38:35 10° SE visible
20 Aug 2.9 05:12:13 10° NW 05:17:09 32° WSW 05:22:04 10° SSW visible
20 Aug 4.7 20:06:09 10° WSW 20:10:48 26° NW 20:15:28 10° N visible
21 Aug 3.5 03:12:54 10° NNW 03:18:13 40° NE 03:23:30 10° SE visible
21 Aug 2.8 04:57:10 10° NW 05:02:10 34° WSW 05:07:09 10° SSW visible
22 Aug 3.6 02:57:55 10° NNW 03:03:12 38° NE 03:08:26 10° ESE visible
22 Aug 2.7 04:42:06 10° NW 04:47:11 35° WSW 04:52:14 10° S visible
23 Aug 3.6 02:42:56 10° NNW 02:48:10 37° NE 02:53:21 10° ESE visible
23 Aug 2.7 04:27:03 10° NW 04:32:12 37° WSW 04:37:19 10° S visible
24 Aug 3.6 02:27:57 10° NNW 02:33:08 35° NE 02:38:16 10° ESE visible
24 Aug 2.6 04:12:00 10° NW 04:17:12 39° WSW 04:22:23 10° S visible
25 Aug 3.7 02:12:58 10° N 02:18:06 34° NE 02:23:11 10° ESE visible
25 Aug 2.5 03:56:58 10° NW 04:02:13 41° WSW 04:06:01 18° SSW visible
26 Aug 3.7 01:58:00 10° N 02:03:03 32° NE 02:06:54 16° ESE visible
26 Aug 2.5 03:41:55 10° NW 03:47:14 43° WSW 03:48:34 37° SW visible
27 Aug 3.8 01:43:01 10° N 01:48:01 31° NE 01:50:24 23° E visible
27 Aug 2.4 03:26:53 10° NW 03:32:06 45° WSW 03:32:06 45° WSW visible
28 Aug 3.8 01:28:02 10° N 01:32:59 30° NE 01:34:22 27° ENE visible
28 Aug 2.7 03:11:50 10° NW 03:16:06 42° WNW 03:16:06 42° WNW visible
29 Aug 3.8 01:13:04 10° N 01:17:57 29° NE 01:18:38 28° ENE visible
29 Aug 3.1 02:56:48 10° NW 03:00:22 36° WNW 03:00:22 36° WNW visible
